DELTA 1 DEB, 10663

Orbit data source: Space-Track

DELTA 1 DEB, 10663 is space debris in SSO originally from a launch on Thu, 29 Jul 1976 UTC launched from the Air Force Western Test Range (AFWTR). Debris objects in space refer to the collection of defunct objects orbiting the Earth. Examples of debris include non-operational satellites, rocket bodies, and fragments generated from explosions, collisions, or faulty payload assembly.

Loading next visibility...
Identifier
10663, 1976-077Z
Orbit
SSO
Country
Flag of USUS
Related business
Manufacturer
Unknown
Mission
Spacecraft
Bus & Motor
Unknown
Mass
Unknown
Launch date (UTC)
1976-07-29 (49 years ago)
Launch vehicle
Unknown
Launch site
Air Force Western Test Range (AFWTR)
Object type
Payload
Rocket body
Debris
Shape & HBR
Unknown shape, 0.1 m
Radar Cross Section
Small (<0.1 m²)

Expand to show TLE details & history
Last TLE update: 20 hours ago

TLE from 20 hours ago
0 DELTA 1 DEB
1 10663U 76077Z   25292.15538081  .00021230  00000-0  13457-1 0  9993
2 10663 100.5995 271.0354 0112097 101.9020 259.4734 14.00833227397128
Epoch: 2025-10-19T03:43Z
TLE epoch observation values (Epoch: 2025-10-19T03:43:44.901Z)
Latitude
-0.00004°
Longitude
-172.77778°
Altitude
909.504 km
Speed
7.389 km/s
True Right ascension
18h 04m 08s
True Declination
0° 00' 00"
Sunlit
Object was in daylight at epoch
Visualization orbit readout
Latitude
Unknown
Longitude
Unknown
Altitude
Unknown
Speed
Unknown
Apparent Right ascension
Unknown
Apparent Declination
Unknown
Sunlit
N/A
Visualization observer readout
Local Sidereal Time
19:00:58
Azimuth
Unknown
Elevation
Unknown
Doppler factor
Unknown
Orbital elements
Apogee altitude
969.647 km
Perigee altitude
806.741 km
Semi-major axis
7,266.331 km
Eccentricity
0.01121
Inclination
100.5995°
RAAN
271.0354°
Arg. of periapsis
101.902°
True anomaly
258.21381°
Mean anomaly
259.4734°
Eccentric anomaly
258.84327°
Mean motion
3.50405 °/min
Orbital period
102.74 mins
BSTAR
0.013457
Loading maneuver chart data...
Computing Atmospheric mass density...
Loading historical data...
Loading historical data...
Loading historical data...
Loading historical data...
Loading historical data...
Loading historical data...
Loading historical data...

Documentation

Showing up to 5 results
|